Regional Weather Roundup
Issued by NWS

Home | Current Version | Previous Version | Graphics & Text | Print | Product List | Glossary Off
Versions: 1 2 3 4 5 6 7 8 9 10 11 12 13 14 15 16 17 18 19 20 21 22 23 24 25 26 27 28 29 30 31 32 33 34 35 36 37 38 39 40 41 42 43 44 45 46 47 48 49 50

000
ASUS43 KMKX 050700
RWRWI

WISCONSIN REGIONAL WEATHER ROUNDUP
NATIONAL WEATHER SERVICE MILWAUKEE/SULLIVAN WI
200 AM CDT SUN JUL 05 2015

NOTE: "FAIR" INDICATES FEW OR NO CLOUDS BELOW 12,000 FEET WITH NO
SIGNIFICANT WEATHER AND/OR OBSTRUCTIONS TO VISIBILITY.

WIZ001-002-006>008-014>016-023>028-050800-
NORTHWEST WISCONSIN

CITY           SKY/WX    TMP DP  RH WIND       PRES   REMARKS
SUPERIOR ARPT  FAIR      55  55  99 CALM      29.91F
ASHLAND        FAIR      55  55 100 CALM      29.92F FOG
HAYWARD        CLOUDY    68  64  87 S6        29.94F FOG
SIREN          FAIR      68  65  88 S7        29.92F FOG
CUMBERLAND     FAIR      63  61  94 S5        29.96F FOG
RICE LAKE      FAIR      67  63  87 SE5       29.98F FOG
CHETEK         FAIR      64  64  99 CALM      29.97F FOG
LADYSMITH      FAIR      66  64  93 CALM      30.00S FOG
EAU CLAIRE     NOT AVBL
MENOMONIE      FAIR      65  63  90 S6        29.98F FOG
NEW RICHMOND   FAIR      66  60  79 S7        29.95F
OSCEOLA        FAIR      67  67 100 S6        29.96F
$$

WIZ003>005-009-010-017-018-050800-
NORTH CENTRAL WISCONSIN

CITY           SKY/WX    TMP DP  RH WIND       PRES   REMARKS
MANITOWISH WTR FAIR      60  60 100 S5        29.99F FOG
ARBOR VITAE    FAIR      62  60  93 CALM      30.00F FOG
WOODRUFF       FAIR      62  60  93 CALM      30.00F FOG
RHINELANDER    FOG       61  60  97 CALM      30.03S VSB 3/4
EAGLE RIVER    FAIR      63  63 100 CALM      30.02S FOG
LAND O LAKES     N/A     59  59  99 CALM      30.02F FOG
PHILLIPS       FAIR      63  62  97 CALM      29.99S FOG
TOMAHAWK       FOG       57  56  96 CALM      30.02S VSB 1
MEDFORD        FAIR      66  64  90 S3        30.02S
MERRILL        FAIR      58  58 100 CALM      30.03R FOG
$$

WIZ029-030-035-036-043>047-050800-
CENTRAL WISCONSIN

CITY           SKY/WX    TMP DP  RH WIND       PRES   REMARKS
WAUSAU         FAIR      67  64  90 S6        30.01R FOG
MOSINEE        FAIR      63  63 100 S6        30.04R
MARSHFIELD     MOCLDY    64  60  87 S5        30.03R FOG
STEVENS POINT  FAIR      64  60  87 CALM      30.03R
WAUPACA        FAIR      64  64  98 CALM      30.02R FOG
WAUTOMA        NOT AVBL
WISC RAPIDS    FAIR      64  61  90 CALM      30.04R
CAMP DOUGLAS   FAIR      57  57 100 E3        30.02S FOG
$$

WIZ011>013-019>022-031-037>040-048>050-050800-
NORTHEAST WISCONSIN

CITY           SKY/WX    TMP DP  RH WIND       PRES   REMARKS
ANTIGO         MOCLDY    62  62  99 S3        30.04R FOG
SHAWANO        FAIR      68  63  84 CALM      30.02R
OCONTO         FAIR      61  61 100 CALM      30.01S
STURGEON BAY   FAIR      61  55  82 S6        30.05F
GREEN BAY      FAIR      62  60  93 CALM      30.02S FOG
MANITOWOC      NOT AVBL
APPLETON       FAIR      66  61  82 SE5       30.03S
CLINTONVILLE   FAIR      64  63  94 CALM      30.01S FOG
OSHKOSH        FAIR      64  60  87 S6        30.03R
$$

WIZ032>034-041-042-053>061-050800-
SOUTHWEST WISCONSIN

CITY           SKY/WX    TMP DP  RH WIND       PRES   REMARKS
LA CROSSE      FAIR      67  64  90 S5        30.00R
SPARTA         FAIR      59  57  93 CALM      30.02R
VIROQUA        FAIR      65  60  81 S6        30.04R
BOSCOBEL       FOG       59  58  96 CALM      30.03S VSB 1/4
PRAIRIE DU CHI FAIR      62  59  90 CALM      30.03R
PLATTEVILLE    FAIR      64  61  90 S3        30.04R
$$

WIZ056-057-062-063-064-067-068-050800-
SOUTH CENTRAL WISCONSIN

CITY           SKY/WX    TMP DP  RH WIND       PRES   REMARKS
REEDSBURG      FAIR      62  60  94 CALM      30.03R
BARABOO/DELLS  FAIR      63  58  82 CALM      30.04R
LONE ROCK      NOT AVBL
MINERAL POINT  FAIR      64  61  88 S3        30.05R
MADISON        FAIR      68  61  78 CALM      30.04R
MIDDLETON      FAIR      64  61  89 CALM      30.04R
WATERTOWN      FAIR      63  63 100 CALM      30.04R
MONROE         FAIR      64  61  88 S7        30.05R
JANESVILLE     FAIR      63  61  94 CALM      30.03S FOG
$$

WIZ051-052-058>065-066-070>072-050800-
SOUTHEAST WISCONSIN

CITY           SKY/WX    TMP DP  RH WIND       PRES   REMARKS
MILWAUKEE      FAIR      67  55  65 S3        30.04R
WAUKESHA       FAIR      63  59  88 S3        30.05R
MILWAUKEE/TIMM FAIR      63  54  72 CALM      30.05R
RACINE         FAIR      65  55  70 CALM      30.06R
BURLINGTON     FAIR      56  56  98 CALM      30.05R FOG
KENOSHA        FAIR      59  55  87 CALM      30.05R
FOND DU LAC    FAIR      64  61  90 S3        30.03R
SHEBOYGAN      FAIR      60  57  89 S3        30.04R
WEST BEND      FAIR      61  57  88 CALM      30.04R
JUNEAU         FAIR      64  61  89 CALM      30.05R
$$

LSZ147-162-050800-
LAKE SUPERIOR

STATION/POSITION TIME  TEMP    WIND        PRES    WAVE
                       AIR SEA DIR/SP/G            HT/PER
                 (UTC) (F)     (DEG/KT/KT) (MB)    (FT/S)
W MID LAKE BUOY  0550   45 39   50/  6/  8 1013.5F   0
DEVILS ISLAND    0600   56      60/  4/  4 1013.3F
SAXON HARBOR     0640   59     200/  3/  4 1012.9F
$$

LMZ867-665-643>646-050800-
LAKE MICHIGAN

STATION/POSITION TIME  TEMP    WIND        PRES    WAVE
                       AIR SEA DIR/SP/G            HT/PER
                 (UTC) (F)     (DEG/KT/KT) (MB)    (FT/S)
CHAMBERS ISLAND  0600   65     140/  4/  6 1016.6R
S GREEN BAY BUOY 0630   68 69  170/  8/ 12 1017.9R
N MID LAKE BUOY  0550   54 49  190/  6/  6 1017.2R   0
NORTHPORT PIER   0600   62     160/  4/  6 1016.9R
SISTER BAY       0544   62     150/  9/ 12   N/A
ALGOMA LAKESHORE 0511          160/  7/  8   N/A
KEWAUNEE LAKESHO 0600   62     140/  2/  5 1016.3R
SHEBOYGAN LAKESH 0600   63     200/  7/  8 1017.0R
PORT WASHINGTON  0600   63      CALM  /  1 1017.3
ATWATER BUOY     0600   64 60  160/  6/  6 1017.9R
MILWAUKEE LAKESH 0600   70     210/  3/  5   N/A
KENOSHA   LAKESH 0600   67     190/  4/  5 1016.6S
$$

TC  - TEMPERATURE IN CELSIUS
VSB - VISIBILITY IN STATUTE MILES
WCI - WIND CHILL INDEX
HX  - HEAT INDEX




USA.gov is the U.S. government's official web portal to all federal, state and local government web resources and services.